[[{"header":{"parameterUnit":"m.s-1","parameterCategory":2,"la1":30.2991,"la2":30.254,"lo1":-89.0895,"lo2":-89.0444,"dy":0.0017,"dx":0.0017,"nx":28,"ny":28,"refTime":"2023-05-23T21:00:00:Z","depth":"0","parameterNumber":2,"parameterNumberName":"U-component_of_CURRENTS"},"data":[0,0,0,0,0,0,0,0,0,0,0,0,0,0,0,0,0,0,0,0,0,0,0,0,0,0,0,0,0,0,0,0,0,0,0,0,0,0,0,0,0,0,0,0,0,0,0,0,0,0,0,0,0,0,0,0,0,0,-0.3042,-0.3046,0,-0.3243,-0.3244,-0.3245,-0.314,-0.3136,-0.3132,-0.3128,-0.3136,-0.314,-0.3144,0,0,0,0,0,0,0,0,0,0,0,0,0,-0.2607,-0.2614,-0.3042,-0.3046,-0.305,-0.3243,-0.3244,-0.3245,-0.314,-0.3136,-0.3131,-0.3126,-0.3135,-0.314,-0.3144,0,0,0,0,0,0,0,0,0,0,0,0,0,-0.2786,-0.2616,-0.3041,-0.3032,-0.3035,-0.3243,-0.3244,-0.3246,-0.3141,-0.3135,-0.313,-0.3124,-0.3133,-0.3139,-0.3145,-0.3299,0,0,-0.3163,-0.3165,0,0,0,0,0,0,0,0,-0.2776,-0.28,-0.303,-0.3034,-0.3037,-0.3174,-0.3095,-0.326,-0.3143,-0.3084,-0.3128,-0.3121,-0.3146,-0.315,-0.3181,-0.3299,-0.33,-0.3163,-0.3167,-0.3169,-0.3171,0,0,0,0,0,0,0,-0.2763,-0.2791,-0.3105,-0.3035,-0.3039,-0.3034,-0.305,-0.3125,-0.313,-0.3089,-0.3086,-0.3135,-0.3143,-0.3176,-0.3181,-0.33,-0.3163,-0.3168,-0.3172,-0.3174,-0.3095,-0.3089,0,0,0,0,0,0,-0.2777,-0.2781,-0.3099,-0.3113,-0.2907,-0.3047,-0.3065,-0.3123,-0.3133,-0.3135,-0.314,-0.313,-0.3169,-0.3174,-0.318,-0.3117,-0.3169,-0.3175,-0.3178,-0.31,-0.3094,-0.3087,0,0,0,0,0,0,-0.2767,-0.2804,-0.3091,-0.2962,-0.3,-0.3062,-0.3128,-0.3131,-0.3178,-0.3177,-0.317,-0.3187,-0.3165,-0.3172,-0.3147,-0.3125,-0.3177,-0.3183,-0.3107,-0.3098,-0.309,-0.3149,0,0,0,0,0,0,-0.2753,-0.2799,-0.2849,-0.2964,-0.3009,-0.3209,-0.3135,-0.3139,-0.3225,-0.3213,-0.3217,-0.321,-0.3161,-0.3137,-0.3152,-0.3134,-0.3187,-0.3114,-0.3103,-0.3093,-0.3154,-0.3144,-0.3135,0,0,0,0,0,-0.2737,-0.2871,-0.285,-0.2889,-0.3074,-0.3214,-0.3234,-0.3246,-0.3233,-0.3264,-0.3187,-0.321,-0.3077,-0.3141,-0.3159,-0.3142,-0.3119,-0.3106,-0.3094,-0.3159,-0.3146,-0.3135,0,0,0,0,0,0,-0.2705,-0.2878,-0.2856,-0.3028,-0.3095,-0.32,-0.3282,-0.3292,-0.3278,-0.3252,-0.3212,-0.3199,-0.3146,-0.3131,-0.3203,-0.3059,-0.3078,-0.3069,-0.312,-0.3109,-0.3099,-0.3132,-0.3192,0,0,0,0,0,-0.2727,-0.287,-0.2971,-0.3102,-0.3153,-0.3219,-0.3287,-0.3288,-0.3307,-0.33,-0.3268,-0.3192,-0.3119,-0.3104,-0.3048,-0.306,-0.3022,-0.3021,-0.3011,-0.3004,-0.3024,-0.292,-0.2907,-0.3046,-0.3046,-0.3046,0,0,-0.2749,-0.287,-0.2942,-0.3105,-0.317,-0.3214,-0.3241,-0.3362,-0.3338,-0.331,-0.3258,-0.32,-0.3107,-0.303,-0.3006,-0.3022,-0.2932,-0.2988,-0.2985,-0.3009,-0.2906,-0.2894,-0.2883,-0.3038,-0.3039,-0.304,0,0,-0.286,-0.2971,-0.3091,-0.3143,-0.3263,-0.3286,-0.3327,-0.3401,-0.3374,-0.3347,-0.325,-0.3176,-0.312,-0.3013,-0.296,-0.2887,-0.2886,-0.2846,-0.2858,-0.2756,-0.2747,-0.2738,-0.266,-0.2644,-0.2844,-0.2844,-0.2844,0,-0.2852,-0.2999,-0.3139,-0.3219,-0.325,-0.3309,-0.3345,-0.3352,-0.337,-0.3338,-0.3304,-0.3139,-0.3093,-0.2976,-0.2898,-0.2881,-0.2824,-0.2938,-0.2756,-0.2746,-0.2737,-0.2658,-0.2641,-0.2845,-0.2845,-0.2845,-0.2845,0,-0.3013,-0.3074,-0.3164,-0.324,-0.3297,-0.3366,-0.3371,-0.3373,-0.3344,-0.3308,-0.3209,-0.3118,-0.3005,-0.2961,-0.292,-0.2809,-0.279,-0.2769,-0.2822,-0.2729,-0.2648,-0.2629,-0.2847,-0.2847,-0.2846,-0.2846,0,0,-0.3057,-0.3231,-0.3231,-0.3211,-0.3297,-0.3344,-0.3333,-0.3319,-0.3279,-0.3233,-0.3153,-0.3027,-0.3,-0.2931,-0.2871,-0.28,-0.2685,-0.2766,-0.276,-0.2754,-0.2469,-0.2405,-0.2377,-0.2641,-0.2638,-0.2636,-0.2439,0,-0.3076,-0.3193,-0.3282,-0.3271,-0.3287,-0.3312,-0.3286,-0.3271,-0.3228,-0.3152,-0.308,-0.2967,-0.2977,-0.2908,-0.2847,-0.2709,-0.2636,-0.2741,-0.2502,-0.2496,-0.2505,-0.2353,-0.2278,-0.2092,-0.242,-0.2417,-0.2415,0,-0.3125,-0.319,-0.3222,-0.3223,-0.3238,-0.3224,-0.3182,-0.3168,-0.3105,-0.3074,-0.3007,-0.294,-0.2823,-0.2829,-0.2629,-0.2694,-0.2591,-0.251,-0.2499,-0.2417,-0.2395,-0.2229,-0.2044,-0.203,-0.2385,-0.2387,-0.239,0,-0.3018,-0.3102,-0.3114,-0.3117,-0.3158,-0.3141,-0.3143,-0.3119,-0.3069,-0.3002,-0.2936,-0.2847,-0.2727,-0.2628,-0.2496,-0.2531,-0.2279,-0.2289,-0.2147,-0.2142,-0.2019,-0.2009,-0.1852,-0.2143,-0.2144,-0.2144,-0.2145,0,-0.2955,-0.2918,-0.3051,-0.3026,-0.2977,-0.3057,-0.2978,-0.2982,-0.2949,-0.2861,-0.2866,-0.2763,-0.2664,-0.2525,-0.2451,-0.2235,-0.223,-0.2123,-0.2069,-0.2029,-0.2022,-0.1959,-0.2005,-0.2137,-0.2138,-0.214,-0.2141,0,-0.2733,-0.286,-0.2823,-0.2896,-0.2907,-0.2845,-0.2846,-0.2793,-0.2813,-0.2693,-0.2656,-0.2611,-0.2449,-0.2368,-0.2167,-0.2114,-0.1909,-0.1891,-0.1871,-0.1818,-0.1673,-0.1724,-0.1524,-0.1476,-0.1671,-0.1668,-0.1665,0,-0.2609,-0.2595,-0.2671,-0.2658,-0.2659,-0.2625,-0.2603,-0.267,-0.2626,-0.259,-0.2507,-0.237,-0.2261,-0.2003,-0.1876,-0.171,-0.175,-0.1553,-0.1603,-0.1625,-0.1642,-0.1701,-0.1682,-0.1452,-0.1448,-0.1444,-0.1442,0,-0.2314,-0.2371,-0.237,-0.2379,-0.2364,-0.2339,-0.2328,-0.2289,-0.2363,-0.2312,-0.2241,-0.217,-0.1965,-0.1767,-0.1589,-0.1497,-0.1527,-0.1476,-0.1475,-0.1431,-0.1504,-0.1446,-0.1658,-0.1412,-0.1415,-0.1417,-0.1419,-0.142,-0.2071,-0.2015,-0.2095,-0.2064,-0.2072,-0.2062,-0.1998,-0.2039,-0.1997,-0.1946,-0.1971,-0.1859,-0.1708,-0.1444,-0.1347,-0.1173,-0.126,-0.1133,-0.1183,-0.1233,-0.1214,-0.138,-0.1098,-0.1099,-0.11,-0.1101,-0.1101,0,-0.1814,-0.1824,-0.1785,-0.1806,-0.1756,-0.184,-0.1823,-0.1775,-0.1725,-0.1722,-0.1667,-0.15,-0.1315,-0.1205,-0.1012,-0.0922,-0.0923,-0.0904,-0.0977,-0.0961,-0.1051,-0.1071,-0.0799,-0.0799,-0.0799,-0.0799,-0.0799,-0.0799,-0.1701,-0.1628,-0.1643,-0.1529,-0.1527,-0.144,-0.1417,-0.1394,-0.1382,-0.1293,-0.1235,-0.1165,-0.1084,-0.1057,-0.0905,-0.0838,-0.0838,-0.0801,-0.0835,-0.0935,-0.0962,-0.0988,-0.1015,-0.0735,-0.0735,-0.0703,-0.0703,-0.0703]},{"header":{"parameterUnit":"m.s-1","parameterCategory":2,"la1":30.2991,"la2":30.254,"lo1":-89.0895,"lo2":-89.0444,"dy":0.0017,"dx":0.0017,"nx":28,"ny":28,"refTime":"2023-05-23T21:00:00:Z","depth":"0","parameterNumber":3,"parameterNumberName":"V-component_of_CURRENTS"},"data":[0,0,0,0,0,0,0,0,0,0,0,0,0,0,0,0,0,0,0,0,0,0,0,0,0,0,0,0,0,0,0,0,0,0,0,0,0,0,0,0,0,0,0,0,0,0,0,0,0,0,0,0,0,0,0,0,0,0,-0.0538,-0.0536,0,-0.0312,-0.0309,-0.0306,-0.0242,-0.0244,-0.0246,-0.0247,0.0111,0.0122,0.0133,0,0,0,0,0,0,0,0,0,0,0,0,0,-0.0592,-0.0593,-0.0538,-0.0536,-0.0534,-0.0313,-0.0309,-0.0305,-0.0242,-0.0244,-0.0246,-0.0248,0.0108,0.0121,0.0134,0,0,0,0,0,0,0,0,0,0,0,0,0,-0.0483,-0.0594,-0.0539,-0.048,-0.0472,-0.0313,-0.0309,-0.0304,-0.0241,-0.0244,-0.0247,-0.0249,0.0103,0.0119,0.0136,0.0293,0,0,0.0187,0.0195,0,0,0,0,0,0,0,0,-0.049,-0.0481,-0.0491,-0.0483,-0.0475,-0.0313,-0.0197,-0.01,-0.0241,-0.0323,-0.0247,-0.025,-0.002,0.0007,0.0061,0.031,0.0325,0.0189,0.0199,0.0206,0.0211,0,0,0,0,0,0,0,-0.0498,-0.0488,-0.0443,-0.0488,-0.0479,-0.0354,-0.0344,-0.0176,-0.0152,-0.0316,-0.0312,-0.0295,-0.0015,0.0045,0.0071,0.033,0.0188,0.0203,0.0214,0.022,0.0636,0.0637,0,0,0,0,0,0,-0.0552,-0.0497,-0.045,-0.0437,-0.0496,-0.0353,-0.0341,-0.0358,-0.0157,-0.0132,-0.0293,-0.0293,0.0017,0.0051,0.0083,0.0209,0.0206,0.0222,0.0232,0.0635,0.0636,0.0637,0,0,0,0,0,0,-0.0554,-0.0551,-0.046,-0.0464,-0.0444,-0.0352,-0.0369,-0.0352,-0.0296,-0.0142,-0.0114,-0.0258,0.0017,0.006,0.0249,0.0226,0.0229,0.0245,0.0634,0.0635,0.0637,0.0507,0,0,0,0,0,0,-0.0557,-0.0554,-0.0567,-0.0469,-0.0447,-0.0336,-0.0367,-0.0346,-0.0284,-0.0282,-0.01,-0.0071,0.0018,0.0223,0.0266,0.0249,0.0258,0.0633,0.0634,0.0636,0.051,0.0504,0.0499,0,0,0,0,0,-0.056,-0.0565,-0.057,-0.0563,-0.0476,-0.0333,-0.0306,-0.0245,-0.028,-0.0214,-0.0113,-0.0077,0.0261,0.0241,0.029,0.0276,0.0632,0.0634,0.0636,0.0513,0.0505,0.0499,0,0,0,0,0,0,-0.0581,-0.0557,-0.056,-0.0557,-0.0445,-0.0325,-0.0279,-0.0241,-0.011,-0.0118,-0.0006,0.0038,0.0173,0.0269,0.0242,0.0398,0.0431,0.0443,0.032,0.0315,0.0309,0.0264,0.0272,0,0,0,0,0,-0.06,-0.062,-0.0526,-0.0521,-0.0477,-0.0381,-0.0321,-0.0264,-0.0149,-0.0099,0.0022,0.013,0.0225,0.0304,0.0432,0.0571,0.0583,0.0576,0.057,0.0564,0.0561,0.0573,0.0566,0.0644,0.0644,0.0644,0,0,-0.0616,-0.0601,-0.0615,-0.0528,-0.046,-0.0366,-0.0349,-0.0247,-0.0187,-0.0071,0.0053,0.0144,0.0261,0.038,0.0445,0.0458,0.0542,0.0567,0.0561,0.0561,0.0575,0.0566,0.0559,0.0646,0.0645,0.0645,0,0,-0.0617,-0.0635,-0.0626,-0.0533,-0.042,-0.0349,-0.0324,-0.018,-0.0141,0.0018,0.0055,0.0137,0.0353,0.0392,0.0437,0.0493,0.0513,0.052,0.0464,0.0475,0.0467,0.0461,0.0419,0.041,0.0514,0.0514,0.0513,0,-0.0628,-0.0624,-0.058,-0.0507,-0.0451,-0.0354,-0.0276,-0.02,-0.0011,0.0015,0.0047,0.0241,0.0337,0.0396,0.0389,0.0472,0.0473,0.0471,0.0461,0.0455,0.0451,0.041,0.0402,0.0508,0.0508,0.0509,0.0509,0,-0.0595,-0.0574,-0.0549,-0.047,-0.0375,-0.0292,-0.0183,-0.0102,-0.0059,0.0009,0.01,0.0224,0.0318,0.0335,0.0386,0.0386,0.0392,0.0444,0.0459,0.0434,0.0394,0.0387,0.0499,0.0501,0.0503,0.0504,0,0,-0.068,-0.0561,-0.0554,-0.052,-0.0358,-0.0284,-0.0197,-0.0098,-0.0097,0.0055,0.0058,0.0186,0.0214,0.0265,0.0315,0.0319,0.0258,0.0358,0.0362,0.0282,0.0241,0.0335,0.0337,0.0308,0.0308,0.0307,0.0207,0,-0.0671,-0.0587,-0.0508,-0.0416,-0.0365,-0.0256,-0.0195,-0.0094,-0.0032,0.0011,0.0068,0.0122,0.0193,0.0206,0.0223,0.0263,0.0245,0.0278,0.0311,0.031,0.0369,0.0335,0.0385,0.031,0.02,0.0199,0.0199,0,-0.0667,-0.0621,-0.0545,-0.0448,-0.0417,-0.0343,-0.0278,-0.0198,-0.0123,-0.0081,-0.0023,0.0037,0.0063,0.0117,0.0155,0.0176,0.0193,0.0215,0.0213,0.0348,0.0395,0.0335,0.0303,0.0427,0.0189,0.019,0.019,0,-0.0779,-0.0654,-0.0626,-0.0577,-0.0434,-0.0409,-0.0341,-0.0244,-0.0224,-0.016,-0.0156,-0.0071,-0.007,-0.0001,0.0085,0.0104,0.0111,0.0145,0.0235,0.0239,0.0315,0.0329,0.0386,0.0148,0.0148,0.0149,0.0149,0,-0.0821,-0.0788,-0.0692,-0.0668,-0.065,-0.0513,-0.0501,-0.0421,-0.0363,-0.0357,-0.0234,-0.0228,-0.0098,-0.0051,0.0032,0.0124,0.0076,0.0211,0.0231,0.0271,0.0282,0.0426,0.0484,0.0145,0.0146,0.0146,0.0147,0,-0.0911,-0.0852,-0.0815,-0.0719,-0.0697,-0.0685,-0.06,-0.0599,-0.0522,-0.0523,-0.0511,-0.039,-0.0291,-0.0153,-0.0063,0.004,0.0214,0.017,0.0193,0.022,0.0449,0.0498,0.0577,0.0648,0.0228,0.023,0.0232,0,-0.0931,-0.093,-0.0882,-0.0884,-0.0839,-0.0812,-0.0796,-0.0697,-0.0688,-0.0613,-0.0629,-0.053,-0.0408,-0.0216,-0.0008,0.0161,0.0262,0.028,0.0352,0.0465,0.0532,0.0563,0.0619,0.0356,0.0359,0.0361,0.0363,0,-0.0962,-0.0969,-0.0947,-0.0972,-0.0973,-0.0965,-0.0932,-0.095,-0.0848,-0.0815,-0.0728,-0.0622,-0.0393,-0.0116,0.0131,0.0232,0.0407,0.0329,0.0443,0.0643,0.0681,0.0759,0.0378,0.0381,0.0379,0.0378,0.0377,0.0376,-0.0982,-0.1002,-0.1007,-0.1028,-0.1048,-0.1073,-0.1062,-0.1016,-0.0978,-0.0836,-0.078,-0.0505,-0.0186,0.0214,0.033,0.0606,0.0558,0.0686,0.0723,0.0733,0.0868,0.0523,0.058,0.058,0.0579,0.0578,0.0578,0,-0.0981,-0.1013,-0.1045,-0.1074,-0.1118,-0.111,-0.111,-0.1061,-0.0983,-0.0766,-0.0602,-0.0112,0.0208,0.0512,0.0843,0.0987,0.101,0.1051,0.109,0.1119,0.0803,0.0883,0.1014,0.1014,0.1014,0.1013,0.1013,0.1013,-0.0978,-0.1014,-0.1043,-0.1112,-0.1141,-0.1154,-0.1145,-0.1038,-0.0855,-0.0448,-0.0055,0.0254,0.0634,0.1013,0.1295,0.1316,0.1442,0.1439,0.1494,0.1274,0.1242,0.1212,0.1301,0.1518,0.1519,0.1804,0.1807,0.1809]}],[{"header":{"parameterUnit":"m.s-1","parameterCategory":2,"la1":30.2991,"la2":30.254,"lo1":-89.0895,"lo2":-89.0444,"dy":0.0017,"dx":0.0017,"nx":28,"ny":28,"refTime":"2023-05-23T21:00:00:Z","depth":"2","parameterNumber":2,"parameterNumberName":"U-component_of_CURRENTS"},"data":[0,0,0,0,0,0,0,0,0,0,0,0,0,0,0,0,0,0,0,0,0,0,0,0,0,0,0,0,0,0,0,0,0,0,0,0,0,0,0,0,0,0,0,0,0,0,0,0,0,0,0,0,0,0,0,0,0,0,-0.2302,-0.2302,0,-0.2351,-0.2352,-0.2352,-0.2361,-0.236,-0.236,-0.2359,-0.2479,-0.2482,-0.2486,0,0,0,0,0,0,0,0,0,0,0,0,0,-0.2183,-0.2185,-0.2302,-0.2302,-0.2303,-0.2351,-0.2352,-0.2353,-0.2361,-0.236,-0.2359,-0.2359,-0.2478,-0.2482,-0.2486,0,0,0,0,0,0,0,0,0,0,0,0,0,-0.2235,-0.2186,-0.2301,-0.2312,-0.2313,-0.2351,-0.2352,-0.2353,-0.2361,-0.236,-0.2359,-0.2359,-0.2476,-0.2482,-0.2487,-0.2537,0,0,-0.2504,-0.2506,0,0,0,0,0,0,0,0,-0.2232,-0.2239,-0.231,-0.2311,-0.2313,-0.2348,-0.2354,-0.2417,-0.2361,-0.2344,-0.2359,-0.2358,-0.2441,-0.245,-0.2461,-0.2543,-0.2548,-0.2504,-0.2508,-0.251,-0.2512,0,0,0,0,0,0,0,-0.2228,-0.2237,-0.2322,-0.231,-0.2312,-0.2303,-0.231,-0.2365,-0.2399,-0.2345,-0.2346,-0.235,-0.2443,-0.2456,-0.2465,-0.255,-0.2504,-0.2509,-0.2512,-0.2515,-0.2705,-0.2707,0,0,0,0,0,0,-0.2223,-0.2234,-0.2321,-0.2324,-0.2268,-0.2306,-0.2313,-0.2338,-0.2397,-0.2404,-0.235,-0.235,-0.2447,-0.2458,-0.2469,-0.2546,-0.251,-0.2515,-0.2518,-0.2704,-0.2706,-0.2708,0,0,0,0,0,0,-0.222,-0.2231,-0.2319,-0.2277,-0.2288,-0.2309,-0.2336,-0.234,-0.2364,-0.2399,-0.2408,-0.2372,-0.2447,-0.2461,-0.2511,-0.255,-0.2518,-0.2523,-0.2702,-0.2704,-0.2707,-0.2692,0,0,0,0,0,0,-0.2217,-0.223,-0.225,-0.2278,-0.229,-0.2341,-0.2337,-0.2341,-0.2366,-0.2367,-0.2421,-0.243,-0.2447,-0.2503,-0.2517,-0.2557,-0.2527,-0.2699,-0.2703,-0.2706,-0.269,-0.2693,-0.2696,0,0,0,0,0,-0.2213,-0.2242,-0.2252,-0.2262,-0.2316,-0.2342,-0.2348,-0.2359,-0.2368,-0.2379,-0.2408,-0.2429,-0.2535,-0.2508,-0.2524,-0.2567,-0.2698,-0.2702,-0.2706,-0.2688,-0.2693,-0.2696,0,0,0,0,0,0,-0.2202,-0.2247,-0.2257,-0.2299,-0.2318,-0.2343,-0.2355,-0.2372,-0.2405,-0.2409,-0.2444,-0.2455,-0.2526,-0.2548,-0.2518,-0.2634,-0.2625,-0.2632,-0.2606,-0.2611,-0.2614,-0.2538,-0.2532,0,0,0,0,0,-0.2209,-0.2244,-0.2274,-0.2307,-0.2316,-0.2342,-0.2357,-0.2367,-0.2396,-0.241,-0.2448,-0.2496,-0.2557,-0.2579,-0.2635,-0.2688,-0.2633,-0.2731,-0.2734,-0.2736,-0.2687,-0.2622,-0.2612,-0.2721,-0.2721,-0.272,0,0,-0.2217,-0.2242,-0.2264,-0.2306,-0.2322,-0.2335,-0.2349,-0.2374,-0.2369,-0.2422,-0.2442,-0.2519,-0.2578,-0.2637,-0.2671,-0.2655,-0.2684,-0.2741,-0.2742,-0.2691,-0.2625,-0.2613,-0.2603,-0.2723,-0.2723,-0.2722,0,0,-0.2224,-0.2267,-0.2285,-0.2306,-0.233,-0.2341,-0.2352,-0.2386,-0.2381,-0.2419,-0.2467,-0.2539,-0.2624,-0.2659,-0.2692,-0.2746,-0.2715,-0.2802,-0.2741,-0.2681,-0.2669,-0.2658,-0.2588,-0.2571,-0.2788,-0.2788,-0.2788,0,-0.2229,-0.2247,-0.2292,-0.2305,-0.2298,-0.2345,-0.2334,-0.2353,-0.2396,-0.2388,-0.242,-0.2532,-0.262,-0.2653,-0.2697,-0.275,-0.2698,-0.272,-0.2677,-0.2665,-0.2653,-0.2585,-0.2565,-0.2788,-0.2788,-0.2788,-0.2788,0,-0.2233,-0.225,-0.226,-0.2285,-0.2292,-0.2297,-0.2312,-0.2331,-0.2349,-0.2365,-0.2401,-0.2488,-0.254,-0.262,-0.2687,-0.2682,-0.2667,-0.2696,-0.2648,-0.264,-0.2571,-0.2551,-0.2788,-0.2788,-0.2788,-0.2788,0,0,-0.2222,-0.2253,-0.2249,-0.2239,-0.2268,-0.227,-0.2266,-0.2256,-0.2252,-0.2296,-0.2264,-0.2406,-0.2449,-0.2488,-0.2578,-0.2555,-0.25,-0.2598,-0.2595,-0.2494,-0.2338,-0.2287,-0.226,-0.2509,-0.2506,-0.2503,-0.2324,0,-0.2192,-0.2183,-0.2199,-0.2182,-0.2175,-0.2198,-0.2189,-0.22,-0.2214,-0.2218,-0.2259,-0.2308,-0.2392,-0.2449,-0.2426,-0.2515,-0.2444,-0.2543,-0.2389,-0.2383,-0.2309,-0.2234,-0.2126,-0.1952,-0.2304,-0.2301,-0.2298,0,-0.2163,-0.2159,-0.2118,-0.2108,-0.2103,-0.2108,-0.2077,-0.2077,-0.2099,-0.2114,-0.212,-0.2175,-0.2198,-0.2265,-0.223,-0.2287,-0.2286,-0.2311,-0.2305,-0.2231,-0.2293,-0.2019,-0.1902,-0.2265,-0.2267,-0.227,-0.2272,0,-0.209,-0.2089,-0.2035,-0.2039,-0.2054,-0.203,-0.2033,-0.2052,-0.2053,-0.205,-0.2077,-0.2049,-0.209,-0.2037,-0.2129,-0.2166,-0.2061,-0.2114,-0.2018,-0.2015,-0.1874,-0.1864,-0.1991,-0.1991,-0.1992,-0.1992,-0.1993,0,-0.2029,-0.2,-0.201,-0.1993,-0.196,-0.1979,-0.1952,-0.1967,-0.1988,-0.2001,-0.2022,-0.2023,-0.204,-0.2018,-0.2033,-0.1958,-0.1958,-0.1949,-0.1943,-0.1873,-0.1866,-0.2108,-0.2124,-0.1985,-0.1987,-0.1988,-0.1989,0,-0.1963,-0.1963,-0.1931,-0.1927,-0.1931,-0.1912,-0.1939,-0.1939,-0.1968,-0.1975,-0.198,-0.2006,-0.196,-0.1941,-0.1898,-0.1862,-0.1797,-0.1762,-0.168,-0.1666,-0.1801,-0.1819,-0.1576,-0.1572,-0.1569,-0.1566,-0.1564,0,-0.1915,-0.189,-0.1887,-0.1878,-0.1879,-0.1875,-0.1885,-0.1925,-0.1936,-0.1969,-0.1968,-0.1942,-0.1902,-0.178,-0.1699,-0.1574,-0.1687,-0.1416,-0.146,-0.1727,-0.1747,-0.1771,-0.1793,-0.1274,-0.127,-0.1266,-0.1263,0,-0.1828,-0.1834,-0.1812,-0.1805,-0.1808,-0.1815,-0.1832,-0.1848,-0.1891,-0.1898,-0.1883,-0.1848,-0.1741,-0.1566,-0.143,-0.1366,-0.1425,-0.1336,-0.1588,-0.142,-0.1434,-0.1459,-0.1491,-0.1231,-0.1234,-0.1236,-0.1238,-0.1239,-0.1756,-0.1734,-0.1709,-0.1701,-0.1717,-0.1717,-0.1682,-0.1719,-0.1711,-0.1676,-0.1728,-0.1607,-0.1566,-0.127,-0.117,-0.1076,-0.1182,-0.1133,-0.1147,-0.1164,-0.1185,-0.1195,-0.0949,-0.095,-0.0952,-0.0953,-0.0954,0,-0.1633,-0.1618,-0.1603,-0.1576,-0.1556,-0.1602,-0.1609,-0.1549,-0.1493,-0.1482,-0.1424,-0.122,-0.1089,-0.1041,-0.0842,-0.0788,-0.0806,-0.0754,-0.0798,-0.083,-0.0859,-0.0868,-0.0545,-0.0543,-0.0542,-0.0541,0,0,-0.1555,-0.1494,-0.1491,-0.1404,-0.1397,-0.1315,-0.129,-0.1234,-0.1185,-0.1068,-0.0989,-0.1023,-0.1015,-0.0787,-0.0723,-0.0602,-0.0709,-0.0561,-0.0891,-0.0976,-0.1003,-0.1078,-0.1127,0,0,0,0,0]},{"header":{"parameterUnit":"m.s-1","parameterCategory":2,"la1":30.2991,"la2":30.254,"lo1":-89.0895,"lo2":-89.0444,"dy":0.0017,"dx":0.0017,"nx":28,"ny":28,"refTime":"2023-05-23T21:00:00:Z","depth":"2","parameterNumber":3,"parameterNumberName":"V-component_of_CURRENTS"},"data":[0,0,0,0,0,0,0,0,0,0,0,0,0,0,0,0,0,0,0,0,0,0,0,0,0,0,0,0,0,0,0,0,0,0,0,0,0,0,0,0,0,0,0,0,0,0,0,0,0,0,0,0,0,0,0,0,0,0,-0.0591,-0.0591,0,-0.0579,-0.0579,-0.0579,-0.051,-0.0509,-0.0507,-0.0505,-0.0316,-0.0312,-0.0309,0,0,0,0,0,0,0,0,0,0,0,0,0,-0.0532,-0.0534,-0.0591,-0.0591,-0.0591,-0.0579,-0.0579,-0.0579,-0.0511,-0.0509,-0.0506,-0.0505,-0.0317,-0.0313,-0.0308,0,0,0,0,0,0,0,0,0,0,0,0,0,-0.0543,-0.0534,-0.0591,-0.0555,-0.0552,-0.0579,-0.0579,-0.0579,-0.0511,-0.0508,-0.0506,-0.0504,-0.0318,-0.0313,-0.0308,-0.0326,0,0,-0.0292,-0.029,0,0,0,0,0,0,0,0,-0.0543,-0.0546,-0.056,-0.0558,-0.0554,-0.0543,-0.0489,-0.0485,-0.0512,-0.0527,-0.0505,-0.0502,-0.0377,-0.0367,-0.0373,-0.0317,-0.0309,-0.0291,-0.0288,-0.0286,-0.0284,0,0,0,0,0,0,0,-0.0542,-0.0545,-0.0587,-0.0561,-0.0556,-0.0532,-0.0531,-0.0489,-0.0463,-0.0525,-0.052,-0.0519,-0.0373,-0.0379,-0.0367,-0.0306,-0.0292,-0.0287,-0.0284,-0.0282,-0.0194,-0.0195,0,0,0,0,0,0,-0.0548,-0.0546,-0.0587,-0.0586,-0.0542,-0.0535,-0.0534,-0.055,-0.0467,-0.0454,-0.0521,-0.0516,-0.0389,-0.0374,-0.036,-0.0293,-0.0286,-0.0281,-0.0278,-0.0194,-0.0195,-0.0195,0,0,0,0,0,0,-0.0547,-0.0552,-0.0587,-0.0564,-0.0566,-0.0539,-0.0557,-0.0551,-0.0547,-0.0466,-0.0448,-0.0523,-0.0386,-0.0368,-0.0333,-0.0287,-0.0279,-0.0274,-0.0193,-0.0194,-0.0195,-0.021,0,0,0,0,0,0,-0.0545,-0.0553,-0.0566,-0.0565,-0.0568,-0.0608,-0.0559,-0.0552,-0.0551,-0.0543,-0.0462,-0.0442,-0.0383,-0.0342,-0.0328,-0.028,-0.027,-0.0192,-0.0193,-0.0195,-0.0208,-0.0211,-0.0214,0,0,0,0,0,-0.0544,-0.0581,-0.0567,-0.0572,-0.0588,-0.0609,-0.0609,-0.0579,-0.0553,-0.0565,-0.0515,-0.0444,-0.034,-0.034,-0.0323,-0.0271,-0.0191,-0.0193,-0.0194,-0.0207,-0.0211,-0.0214,0,0,0,0,0,0,-0.056,-0.0578,-0.0562,-0.0601,-0.0602,-0.0597,-0.0611,-0.059,-0.0566,-0.0554,-0.047,-0.0449,-0.0391,-0.0357,-0.0359,-0.0258,-0.0248,-0.0247,-0.0263,-0.0266,-0.0269,-0.0266,-0.0266,0,0,0,0,0,-0.0573,-0.0608,-0.0606,-0.0638,-0.0644,-0.0629,-0.0633,-0.0616,-0.0596,-0.0583,-0.052,-0.0457,-0.0393,-0.0353,-0.0303,-0.0264,-0.0232,-0.022,-0.0222,-0.0225,-0.0216,-0.0138,-0.0132,-0.0202,-0.0201,-0.0201,0,0,-0.0591,-0.0603,-0.0623,-0.0644,-0.0646,-0.0657,-0.0625,-0.0645,-0.0648,-0.0565,-0.0544,-0.0468,-0.039,-0.0333,-0.0303,-0.0292,-0.02,-0.0227,-0.0229,-0.0218,-0.0139,-0.0132,-0.0125,-0.0203,-0.0203,-0.0202,0,0,-0.064,-0.0654,-0.0692,-0.0691,-0.0698,-0.0694,-0.0701,-0.0691,-0.0682,-0.0663,-0.0587,-0.049,-0.0428,-0.0334,-0.0284,-0.0281,-0.0223,-0.027,-0.0265,-0.019,-0.0182,-0.0175,-0.017,-0.0163,-0.0264,-0.0264,-0.0264,0,-0.065,-0.0688,-0.0704,-0.072,-0.0717,-0.071,-0.0724,-0.0732,-0.0707,-0.0683,-0.0659,-0.0511,-0.0413,-0.0318,-0.0289,-0.0274,-0.0265,-0.025,-0.0189,-0.0181,-0.0174,-0.017,-0.0161,-0.0265,-0.0265,-0.0264,-0.0264,0,-0.0712,-0.0726,-0.0749,-0.0764,-0.0773,-0.079,-0.079,-0.0792,-0.0766,-0.0731,-0.0653,-0.0544,-0.0434,-0.0382,-0.0315,-0.021,-0.0236,-0.0204,-0.0172,-0.0167,-0.0165,-0.0156,-0.0266,-0.0266,-0.0265,-0.0265,0,0,-0.0767,-0.0786,-0.0788,-0.0777,-0.0788,-0.0798,-0.0821,-0.0811,-0.0789,-0.0749,-0.0694,-0.0545,-0.0465,-0.0404,-0.0311,-0.0222,-0.0128,-0.0184,-0.018,-0.0168,-0.0026,0.0005,0.0018,-0.0092,-0.0089,-0.0087,-0.0063,0,-0.0795,-0.082,-0.0829,-0.0837,-0.0841,-0.0831,-0.0844,-0.0831,-0.0799,-0.0748,-0.0648,-0.0555,-0.0492,-0.0403,-0.0312,-0.016,-0.0098,-0.0142,-0.0044,-0.0042,-0.0002,0.0034,0.003,0.0057,-0.0053,-0.0052,-0.005,0,-0.0839,-0.0844,-0.086,-0.0841,-0.0843,-0.0848,-0.083,-0.0838,-0.0785,-0.0748,-0.0664,-0.059,-0.0446,-0.039,-0.0199,-0.0242,-0.0131,-0.004,-0.0037,0.0013,0.001,0.0041,0.0079,-0.0034,-0.0035,-0.0036,-0.0037,0,-0.0852,-0.0857,-0.0866,-0.0858,-0.0853,-0.0851,-0.0848,-0.0818,-0.0809,-0.0734,-0.0683,-0.0574,-0.047,-0.0351,-0.0162,-0.0171,0.0027,0.0037,0.0133,0.0131,0.0163,0.0162,0.0166,0.0166,0.0166,0.0166,0.0166,0,-0.0866,-0.0865,-0.0864,-0.086,-0.0859,-0.0851,-0.0839,-0.0821,-0.0777,-0.0742,-0.0669,-0.0608,-0.0441,-0.0319,-0.0186,-0.0002,-0.0,0.0144,0.0165,0.0149,0.0147,0.0105,0.0098,0.0167,0.0167,0.0167,0.0167,0,-0.0876,-0.0878,-0.0879,-0.087,-0.0865,-0.0864,-0.0846,-0.0838,-0.0789,-0.0741,-0.0714,-0.0601,-0.0447,-0.0316,-0.0089,-0.0003,0.0156,0.0218,0.0153,0.0169,0.0195,0.0186,0.0306,0.0308,0.031,0.0311,0.0312,0,-0.0883,-0.0887,-0.0888,-0.0897,-0.0892,-0.0885,-0.0892,-0.0853,-0.0838,-0.0739,-0.0715,-0.0561,-0.0446,-0.0168,0.002,0.02,0.0207,0.0297,0.0319,0.0214,0.0222,0.021,0.0199,0.0317,0.0318,0.0319,0.0319,0,-0.089,-0.0897,-0.0903,-0.0921,-0.0929,-0.0935,-0.0924,-0.0911,-0.0864,-0.0797,-0.0687,-0.058,-0.0323,-0.0095,0.0138,0.0241,0.0263,0.0322,0.0269,0.0292,0.023,0.0235,0.0223,0.0327,0.0326,0.0326,0.0325,0.0325,-0.0897,-0.0911,-0.0929,-0.0946,-0.0965,-0.0981,-0.097,-0.0939,-0.0889,-0.0768,-0.0676,-0.0483,-0.0278,0.0079,0.0238,0.0371,0.0363,0.0402,0.0397,0.0391,0.0398,0.0345,0.0459,0.0459,0.0459,0.0459,0.0459,0,-0.09,-0.0924,-0.095,-0.0976,-0.1007,-0.1004,-0.0995,-0.0957,-0.0879,-0.0743,-0.0598,-0.0345,-0.009,0.0104,0.034,0.0479,0.0454,0.0485,0.0434,0.0427,0.042,0.0426,0.0496,0.0496,0.0497,0.0497,0,0,-0.0902,-0.0931,-0.0951,-0.1005,-0.1026,-0.1036,-0.1024,-0.0933,-0.0822,-0.0654,-0.0498,-0.0306,-0.0065,0.0112,0.0282,0.0401,0.037,0.04,0.0359,0.0272,0.0263,0.0363,0.0365,0,0,0,0,0]}],[{"header":{"parameterUnit":"m.s-1","parameterCategory":2,"la1":30.2991,"la2":30.254,"lo1":-89.0895,"lo2":-89.0444,"dy":0.0017,"dx":0.0017,"nx":28,"ny":28,"refTime":"2023-05-23T21:00:00:Z","depth":"4","parameterNumber":2,"parameterNumberName":"U-component_of_CURRENTS"},"data":[0,0,0,0,0,0,0,0,0,0,0,0,0,0,0,0,0,0,0,0,0,0,0,0,0,0,0,0,0,0,0,0,0,0,0,0,0,0,0,0,0,0,0,0,0,0,0,0,0,0,0,0,0,0,0,0,0,0,-0.1546,-0.1546,0,-0.1569,-0.1569,-0.157,-0.1641,-0.1643,-0.1645,-0.1646,-0.168,-0.1679,-0.1679,0,0,0,0,0,0,0,0,0,0,0,0,0,-0.1486,-0.1487,-0.1546,-0.1546,-0.1546,-0.1569,-0.1569,-0.157,-0.1641,-0.1643,-0.1645,-0.1647,-0.168,-0.1679,-0.1679,0,0,0,0,0,0,0,0,0,0,0,0,0,-0.151,-0.1488,-0.1546,-0.1586,-0.159,-0.1569,-0.157,-0.157,-0.164,-0.1643,-0.1646,-0.1648,-0.168,-0.1679,-0.1678,-0.1621,0,0,-0.1675,-0.1675,0,0,0,0,0,0,0,0,-0.1509,-0.1512,-0.1579,-0.1583,-0.1587,-0.1606,-0.1561,-0.1588,-0.164,-0.162,-0.1646,-0.1649,-0.1655,-0.1656,-0.1653,-0.1623,-0.1624,-0.1675,-0.1675,-0.1674,-0.1674,0,0,0,0,0,0,0,-0.1507,-0.1511,-0.1554,-0.158,-0.1585,-0.1577,-0.1584,-0.1566,-0.1622,-0.1622,-0.1627,-0.1631,-0.1658,-0.1654,-0.1654,-0.1625,-0.1675,-0.1674,-0.1674,-0.1673,-0.1654,-0.1654,0,0,0,0,0,0,-0.1508,-0.151,-0.1553,-0.1554,-0.1555,-0.1576,-0.1584,-0.1596,-0.1622,-0.1629,-0.1629,-0.1635,-0.1654,-0.1656,-0.1656,-0.1679,-0.1674,-0.1673,-0.1673,-0.1654,-0.1654,-0.1654,0,0,0,0,0,0,-0.1507,-0.1512,-0.1552,-0.1533,-0.1538,-0.1575,-0.1588,-0.1596,-0.1621,-0.1628,-0.1635,-0.1651,-0.1656,-0.1657,-0.1665,-0.1678,-0.1673,-0.1672,-0.1654,-0.1654,-0.1654,-0.1668,0,0,0,0,0,0,-0.1505,-0.1512,-0.153,-0.1534,-0.1539,-0.1542,-0.1586,-0.1594,-0.1618,-0.1626,-0.1648,-0.1652,-0.1659,-0.1667,-0.1664,-0.1676,-0.1671,-0.1654,-0.1654,-0.1654,-0.1667,-0.1669,-0.167,0,0,0,0,0,-0.1503,-0.1513,-0.1531,-0.1537,-0.1561,-0.1541,-0.1542,-0.1576,-0.1617,-0.1612,-0.1644,-0.1653,-0.1667,-0.1665,-0.1663,-0.1675,-0.1654,-0.1654,-0.1654,-0.1667,-0.1668,-0.167,0,0,0,0,0,0,-0.1503,-0.1521,-0.1542,-0.156,-0.1554,-0.1554,-0.1562,-0.1582,-0.1601,-0.1623,-0.1643,-0.1648,-0.1661,-0.1659,-0.1657,-0.167,-0.1665,-0.1665,-0.1676,-0.1677,-0.1678,-0.1656,-0.167,0,0,0,0,0,-0.1508,-0.1524,-0.1525,-0.1542,-0.1539,-0.1554,-0.1558,-0.1573,-0.1585,-0.1599,-0.1619,-0.164,-0.1651,-0.166,-0.1659,-0.1655,-0.1648,-0.1665,-0.1666,-0.1667,-0.1646,-0.1656,-0.1656,-0.1655,-0.1655,-0.1655,0,0,-0.1518,-0.1527,-0.1541,-0.1543,-0.1547,-0.1536,-0.1563,-0.1563,-0.1572,-0.1595,-0.1624,-0.1638,-0.1649,-0.1657,-0.1663,-0.1663,-0.1664,-0.1667,-0.1668,-0.1646,-0.1656,-0.1656,-0.1656,-0.1655,-0.1655,-0.1655,0,0,-0.1508,-0.1545,-0.1538,-0.1531,-0.1529,-0.1535,-0.1538,-0.1543,-0.1568,-0.1578,-0.161,-0.1622,-0.1644,-0.1646,-0.1654,-0.1652,-0.1667,-0.1675,-0.1665,-0.1676,-0.1676,-0.1675,-0.1671,-0.167,-0.168,-0.168,-0.168,0,-0.1524,-0.1516,-0.153,-0.151,-0.1515,-0.1537,-0.1523,-0.1536,-0.1549,-0.1566,-0.1593,-0.1627,-0.1631,-0.1641,-0.1649,-0.1652,-0.1667,-0.1663,-0.1677,-0.1677,-0.1676,-0.1672,-0.1671,-0.1681,-0.168,-0.168,-0.168,0,-0.148,-0.1492,-0.1485,-0.1481,-0.1482,-0.1473,-0.1488,-0.1505,-0.1549,-0.1563,-0.1592,-0.1601,-0.1623,-0.1633,-0.1642,-0.1648,-0.1662,-0.1676,-0.1674,-0.1677,-0.1672,-0.1671,-0.1682,-0.1681,-0.1681,-0.1681,0,0,-0.1477,-0.1461,-0.1463,-0.1468,-0.1471,-0.1468,-0.1486,-0.1498,-0.153,-0.1549,-0.1584,-0.1588,-0.1607,-0.1613,-0.1631,-0.1634,-0.1641,-0.1661,-0.1661,-0.1655,-0.1671,-0.1548,-0.1535,-0.1681,-0.1681,-0.1681,-0.167,0,-0.1444,-0.1408,-0.1414,-0.1413,-0.1403,-0.144,-0.1462,-0.1484,-0.1521,-0.1559,-0.1574,-0.1609,-0.16,-0.163,-0.1626,-0.1649,-0.1639,-0.1642,-0.1667,-0.1666,-0.1557,-0.1529,-0.168,-0.1669,-0.1669,-0.1668,-0.1668,0,-0.1393,-0.1382,-0.1362,-0.1398,-0.1401,-0.1413,-0.1469,-0.1489,-0.1535,-0.1567,-0.159,-0.162,-0.1625,-0.163,-0.1631,-0.1649,-0.1645,-0.165,-0.1651,-0.1523,-0.154,-0.1663,-0.1666,-0.1666,-0.1666,-0.1666,-0.1667,0,-0.1366,-0.1359,-0.1353,-0.1356,-0.1385,-0.1411,-0.1444,-0.1491,-0.1528,-0.1577,-0.1614,-0.1626,-0.1656,-0.1652,-0.1646,-0.1662,-0.1649,-0.1673,-0.1545,-0.1538,-0.165,-0.165,-0.1648,-0.1648,-0.1648,-0.1648,-0.1648,0,-0.1322,-0.133,-0.1346,-0.1344,-0.1376,-0.1404,-0.1455,-0.149,-0.1548,-0.1583,-0.162,-0.1641,-0.167,-0.1672,-0.1655,-0.1579,-0.1651,-0.1514,-0.1515,-0.1657,-0.1658,-0.165,-0.165,-0.1648,-0.1648,-0.1648,-0.1648,0,-0.1293,-0.1296,-0.1306,-0.134,-0.1362,-0.139,-0.147,-0.1502,-0.1559,-0.1608,-0.163,-0.1671,-0.1654,-0.1651,-0.1644,-0.1578,-0.1531,-0.1485,-0.1619,-0.1634,-0.1415,-0.1416,-0.134,-0.1336,-0.1332,-0.1328,-0.1326,0,-0.1265,-0.1261,-0.1308,-0.1325,-0.1347,-0.1396,-0.1435,-0.1502,-0.1532,-0.1606,-0.162,-0.1637,-0.1642,-0.1513,-0.1524,-0.1451,-0.1429,-0.1398,-0.1396,-0.1368,-0.1378,-0.1386,-0.1392,-0.1319,-0.1318,-0.1317,-0.1316,0,-0.1221,-0.1253,-0.1263,-0.1293,-0.1332,-0.1372,-0.1425,-0.144,-0.151,-0.1588,-0.1551,-0.1513,-0.148,-0.1431,-0.1371,-0.1329,-0.1417,-0.1356,-0.1365,-0.1362,-0.1342,-0.1358,-0.1369,-0.1302,-0.1304,-0.1306,-0.1306,0,-0.1199,-0.1201,-0.1215,-0.1237,-0.1292,-0.1302,-0.1347,-0.1357,-0.1388,-0.1463,-0.145,-0.1443,-0.1479,-0.1367,-0.1322,-0.1251,-0.123,-0.1189,-0.1206,-0.1221,-0.118,-0.1136,-0.1008,0,0,0,0,0,-0.1145,-0.1126,-0.115,-0.1151,-0.1214,-0.1229,-0.1314,-0.1357,-0.1433,-0.1372,-0.1399,-0.1353,-0.126,-0.126,-0.1154,-0.1261,-0.1238,-0.1134,-0.1202,-0.1226,-0.1242,-0.1201,0,0,0,0,0,0,-0.1093,-0.1109,-0.1108,-0.1075,-0.1066,-0.1104,-0.1148,-0.1206,-0.1173,-0.1255,-0.1207,-0.126,-0.1187,-0.1283,-0.1119,-0.1116,-0.1129,-0.1137,-0.1133,-0.1217,-0.1231,-0.1244,-0.1207,0,0,0,0,0]},{"header":{"parameterUnit":"m.s-1","parameterCategory":2,"la1":30.2991,"la2":30.254,"lo1":-89.0895,"lo2":-89.0444,"dy":0.0017,"dx":0.0017,"nx":28,"ny":28,"refTime":"2023-05-23T21:00:00:Z","depth":"4","parameterNumber":3,"parameterNumberName":"V-component_of_CURRENTS"},"data":[0,0,0,0,0,0,0,0,0,0,0,0,0,0,0,0,0,0,0,0,0,0,0,0,0,0,0,0,0,0,0,0,0,0,0,0,0,0,0,0,0,0,0,0,0,0,0,0,0,0,0,0,0,0,0,0,0,0,-0.048,-0.0481,0,-0.0519,-0.052,-0.052,-0.0481,-0.0479,-0.0478,-0.0476,-0.0456,-0.0457,-0.0458,0,0,0,0,0,0,0,0,0,0,0,0,0,-0.0399,-0.0401,-0.048,-0.0481,-0.0481,-0.0519,-0.052,-0.0521,-0.0481,-0.0479,-0.0477,-0.0475,-0.0456,-0.0457,-0.0458,0,0,0,0,0,0,0,0,0,0,0,0,0,-0.0437,-0.0401,-0.048,-0.0465,-0.0463,-0.0519,-0.052,-0.0521,-0.0482,-0.0479,-0.0477,-0.0474,-0.0455,-0.0457,-0.0458,-0.0519,0,0,-0.0463,-0.0464,0,0,0,0,0,0,0,0,-0.0435,-0.0441,-0.0467,-0.0466,-0.0464,-0.0491,-0.0484,-0.0517,-0.0482,-0.0477,-0.0476,-0.0473,-0.0463,-0.0464,-0.048,-0.0518,-0.0518,-0.0463,-0.0464,-0.0465,-0.0465,0,0,0,0,0,0,0,-0.0433,-0.0439,-0.0497,-0.0467,-0.0466,-0.0465,-0.0467,-0.049,-0.0484,-0.0477,-0.0474,-0.0476,-0.0462,-0.0479,-0.0479,-0.0517,-0.0463,-0.0465,-0.0466,-0.0466,-0.056,-0.0561,0,0,0,0,0,0,-0.0426,-0.0437,-0.0496,-0.0498,-0.0441,-0.0468,-0.0471,-0.0487,-0.0485,-0.0482,-0.0478,-0.0474,-0.0477,-0.0477,-0.0478,-0.0505,-0.0465,-0.0466,-0.0467,-0.0558,-0.056,-0.0562,0,0,0,0,0,0,-0.0425,-0.0432,-0.0495,-0.0466,-0.0473,-0.0472,-0.049,-0.0489,-0.0504,-0.0486,-0.0482,-0.0494,-0.0475,-0.0476,-0.051,-0.0505,-0.0467,-0.0469,-0.0556,-0.0559,-0.0561,-0.0588,0,0,0,0,0,0,-0.0422,-0.0431,-0.0447,-0.0466,-0.0475,-0.0538,-0.0492,-0.0491,-0.0509,-0.0504,-0.0499,-0.0494,-0.0473,-0.0508,-0.0512,-0.0507,-0.047,-0.0554,-0.0557,-0.056,-0.0585,-0.0591,-0.0596,0,0,0,0,0,-0.042,-0.0459,-0.0448,-0.0455,-0.0495,-0.054,-0.0546,-0.0535,-0.0512,-0.0537,-0.0531,-0.0494,-0.0527,-0.0512,-0.0516,-0.0511,-0.0553,-0.0556,-0.056,-0.0583,-0.059,-0.0596,0,0,0,0,0,0,-0.0433,-0.0459,-0.0447,-0.0491,-0.0514,-0.0532,-0.0557,-0.055,-0.0569,-0.0563,-0.0533,-0.0531,-0.0551,-0.0547,-0.053,-0.0548,-0.0527,-0.0531,-0.0543,-0.055,-0.0555,-0.0531,-0.0471,0,0,0,0,0,-0.0443,-0.048,-0.0496,-0.0533,-0.0546,-0.0554,-0.0571,-0.0571,-0.0585,-0.0591,-0.0587,-0.058,-0.0574,-0.0574,-0.0581,-0.0611,-0.0551,-0.0606,-0.0611,-0.0616,-0.0601,-0.0524,-0.0519,-0.0573,-0.0573,-0.0573,0,0,-0.046,-0.0478,-0.0499,-0.0538,-0.0554,-0.0581,-0.0559,-0.0601,-0.0613,-0.0589,-0.0616,-0.061,-0.059,-0.0608,-0.0614,-0.0598,-0.057,-0.062,-0.0623,-0.0606,-0.0527,-0.0521,-0.0516,-0.0575,-0.0575,-0.0574,0,0,-0.0508,-0.0528,-0.0566,-0.0584,-0.0614,-0.0624,-0.0637,-0.0667,-0.0668,-0.0706,-0.0671,-0.0667,-0.0688,-0.0655,-0.064,-0.0688,-0.0606,-0.0692,-0.0691,-0.0618,-0.0611,-0.0605,-0.0514,-0.0499,-0.0687,-0.0688,-0.0688,0,-0.0518,-0.0559,-0.0586,-0.0615,-0.0624,-0.0641,-0.0667,-0.0687,-0.0722,-0.0716,-0.0717,-0.0702,-0.0698,-0.0664,-0.0678,-0.0693,-0.0633,-0.0663,-0.0619,-0.0612,-0.0605,-0.0513,-0.0496,-0.0689,-0.0689,-0.0689,-0.0689,0,-0.0582,-0.0605,-0.0633,-0.0664,-0.0689,-0.0725,-0.074,-0.0768,-0.077,-0.0765,-0.0757,-0.0751,-0.0722,-0.0725,-0.0717,-0.0666,-0.0632,-0.0635,-0.0591,-0.06,-0.0504,-0.0486,-0.0692,-0.0691,-0.0691,-0.069,0,0,-0.0618,-0.0663,-0.067,-0.0668,-0.071,-0.0735,-0.0766,-0.0779,-0.0769,-0.0794,-0.0757,-0.076,-0.0737,-0.0719,-0.0698,-0.0645,-0.0553,-0.0623,-0.0618,-0.0511,-0.0364,-0.0392,-0.0374,-0.054,-0.0538,-0.0536,-0.0313,0,-0.0646,-0.069,-0.0711,-0.0742,-0.0756,-0.077,-0.0787,-0.0802,-0.0802,-0.0784,-0.075,-0.0722,-0.0737,-0.071,-0.0663,-0.0581,-0.0508,-0.0611,-0.039,-0.0383,-0.0389,-0.0356,-0.0527,-0.0299,-0.0294,-0.0291,-0.0289,0,-0.0687,-0.0705,-0.0738,-0.0744,-0.0752,-0.0776,-0.0779,-0.0797,-0.0777,-0.0767,-0.073,-0.0699,-0.0628,-0.064,-0.0479,-0.0541,-0.0453,-0.0389,-0.0379,-0.0379,-0.0378,-0.0293,-0.0255,-0.0258,-0.026,-0.0263,-0.0265,0,-0.0681,-0.0716,-0.0734,-0.0741,-0.0766,-0.0774,-0.0788,-0.0789,-0.0785,-0.074,-0.0711,-0.0635,-0.0576,-0.047,-0.0377,-0.0403,-0.0188,-0.0201,-0.0131,-0.0131,-0.0157,-0.0166,-0.0063,-0.0063,-0.0063,-0.0064,-0.0065,0,-0.0685,-0.0699,-0.0731,-0.0738,-0.0752,-0.0768,-0.0773,-0.0775,-0.0752,-0.0727,-0.0693,-0.0637,-0.053,-0.0418,-0.0331,-0.0179,-0.0142,-0.0107,-0.0073,-0.0176,-0.019,-0.0142,-0.0154,-0.0056,-0.0057,-0.0059,-0.0061,0,-0.0674,-0.0697,-0.0716,-0.0742,-0.0751,-0.0762,-0.0775,-0.0774,-0.075,-0.0706,-0.0684,-0.0599,-0.0457,-0.035,-0.0159,-0.0111,0.003,0.0075,-0.0022,-0.0001,0.004,0.0024,0.0213,0.0214,0.0215,0.0215,0.0216,0,-0.0671,-0.0682,-0.072,-0.0739,-0.0753,-0.0771,-0.0787,-0.0779,-0.0766,-0.0684,-0.0651,-0.0515,-0.0453,-0.0185,-0.0097,0.0099,0.0096,0.0187,0.0092,0.0056,0.0071,0.0052,0.0035,0.0217,0.0217,0.0218,0.0218,0,-0.0661,-0.0685,-0.0705,-0.0742,-0.0766,-0.0784,-0.0791,-0.0772,-0.0745,-0.0715,-0.0588,-0.0471,-0.0312,-0.0165,-0.0025,0.0099,0.0133,0.0195,0.0194,0.0106,0.0063,0.0073,0.0055,0.0221,0.022,0.022,0.022,0,-0.0661,-0.0678,-0.0715,-0.074,-0.0778,-0.0789,-0.0789,-0.075,-0.0723,-0.0625,-0.0578,-0.0427,-0.0335,-0.016,-0.0033,0.008,0.0103,0.0131,0.0134,0.0132,-0.0,-0.0073,0.0098,0,0,0,0,0,-0.0655,-0.0677,-0.0708,-0.074,-0.0779,-0.0796,-0.0794,-0.0785,-0.0739,-0.0645,-0.0607,-0.0463,-0.0263,-0.0178,-0.0061,-0.0043,0.01,0.0095,0.0127,0.0235,0.0232,0.0083,0,0,0,0,0,0,-0.0654,-0.069,-0.0705,-0.074,-0.0761,-0.0794,-0.0794,-0.0763,-0.0699,-0.0636,-0.0526,-0.0448,-0.0258,-0.0329,-0.0063,-0.003,0.0005,0.0191,0.0194,0.0237,0.0234,0.0232,0.0077,0,0,0,0,0]}]]